Regional Weather Roundup
Issued by NWS

Home | Current Version | Previous Version | Graphics & Text | Print | Product List | Glossary Off
Versions: 1 2 3 4 5 6 7 8 9 10 11 12 13 14 15 16 17 18 19 20 21 22 23 24 25 26 27 28 29 30 31 32 33 34 35 36 37 38 39 40 41 42 43 44 45 46 47 48 49 50

000
ASUS43 KTOP 281559
RWRKS

WEATHER ROUNDUP FOR KANSAS
NATIONAL WEATHER SERVICE GOODLAND KS
1000 AM CST SAT FEB 28 2015

NOTE:  "FAIR" INDICATES FEW OR NO CLOUDS BELOW 12,000 FEET WITH NO
SIGNIFICANT WEATHER AND/OR OBSTRUCTIONS TO VISIBILITY.

KSZ001>006-013>018-027>032-041>047-281700-
NORTHWEST KANSAS

CITY           SKY/WX    TMP DP  RH WIND       PRES   REMARKS
GOODLAND       LGT SNOW  13   9  84 S12       30.12S FOG     WCI  -1
HAYS           CLOUDY    16   3  57 S12       30.33S WCI   3
HILL CITY      LGT SNOW  15  10  80 S12       30.31F WCI   2
RUSSELL        LGT SNOW  15  11  83 S10       30.34S FOG     WCI   2
$$

KSZ061>065-074>080-084>089-281700-
SOUTHWEST KANSAS

CITY           SKY/WX    TMP DP  RH WIND       PRES   REMARKS
DODGE CITY     CLOUDY    13   8  81 SE14      30.26S HAZE    WCI  -2
ELKHART          N/A     14   6  70 S20         N/A  WCI  -3
GARDEN CITY    CLOUDY    12   9  87 SE17      30.20R FOG     WCI  -5
GREAT BEND     PTSUNNY   16   7  67 SE12      30.35F WCI   3
LIBERAL        CLOUDY    16  10  79 SE14      30.21S WCI   1
$$

KSZ066>073-081>083-090>101-281700-
SOUTHEAST KANSAS

CITY           SKY/WX    TMP DP  RH WIND       PRES   REMARKS
CHANUTE        SNOW      21  18  88 E7        30.47F VSB 1/2
COFFEYVILLE    LGT SNOW  22  19  89 E7        30.48F VSB 3/4
HUTCHINSON     LGT SNOW  18  12  77 SE9       30.39F VSB 1
MEDICINE LODGE   N/A     16  13  88 SE7       30.38R
NEWTON         CLOUDY    18  10  73 SE9       30.41F
PARSONS        LGT SNOW  22  19  89 E3        30.48F VSB 1
WICHITA INTL   SNOW      18  14  84 SE8       30.41F VSB 1/2
WICHITA JABRA  SNOW      18  15  88 E6        30.41F VSB 1/2
WICHITA MCCONL LGT SNOW  18  14  86 E7        30.41F VSB 1
WINFIELD       SNOW      19  16  88 E7        30.44S VSB 1/2
$$

KSZ007>012-019>026-033>040-048>060-102>105-281700-
NORTHEAST KANSAS

CITY           SKY/WX    TMP DP  RH WIND       PRES   REMARKS
CONCORDIA      LGT SNOW  17  14  88 S10       30.41F VSB 1   WCI   5
EMPORIA        LGT SNOW  18  15  88 SE9       30.44F VSB 3/4
LAWRENCE       SNOW      19  15  84 SE8       30.52F VSB 1/2
MANHATTAN      SNOW      19  15  84 SE8       30.46F VSB 1/2
OLATHE IND     LGT SNOW  19  14  81 SE8       30.51S VSB 1
OLATHE EXE     LGT SNOW  18  15  88 SE8       30.50S FOG
SALINA         LGT SNOW  18  13  80 SE9       30.43S
TOPEKA BILLARD LGT SNOW  19  15  84 E8        30.51F VSB 1
TOPEKA FORBES  LGT SNOW  20  15  81 SE8       30.48F VSB 1
$$


USA.gov is the U.S. government's official web portal to all federal, state and local government web resources and services.